Погода в Керчи

Погода в Керчи : погода сейчас, прогноз погоды и архив. Всё, что Вы хотите узнать о погоде в Керчи!

Поиск расширенной информации на нашем сайте:

Другие новости

Новости СМИ2

Главная страница сайта

Новости сайта

02.10.2013

Напоминаем, что на нашем новом сайте вы можете получить высокодетализированные прогнозы погоды по пунктам России, СНГ и мира (включающие важные для авиации метеовеличины, такие как направление и скорость ветра, видимость, явления погоды, количество и форма облачности, нижняя и верхняя граница облачности), а также ознакомиться с разнообразными материалами по авиационной метеорологии и подборкой полезных ссылок на эту тему.

Сайт Метеоцентр.Азия посвящён разработке технологий оптимизации авиаметеорологического обслуживания, включая проектирование и перспективное создание нескольких автоматизированных авиаметеорологических систем:
- система выпуска высокодетальных прогностических карт явлений погоды для нижнего воздушного пространства по России и ближнему зарубежью;
- система верификации прогнозов TAF (выпускаемых синоптиками официальных АМСГ РФ и ближнего зарубежья) и AUTOTAF (выпускаемых сайтом Метеоцентр.Азия) - выявление ошибок, онлайн-сопоставление с фактической погодой METAR, автоматическое внесение коррективов в прогнозы при резком отклонении фактической погоды от прогноза, подсчёт оправдываемости прогнозов по элементам и в целом;
- система обработки, анализа и отображения авиаметеорологической информации для применения провайдерами метеорологической информации.

Рекомендуем: купоны gearbest 2017

Погода в Керчи - сегодня

Время (UTC), дата Ветер
(°,м/с) 
Видим.   Явления Облачность Т
(°С)
Тd
(°С)
f(%) Тe
(°С)
Pmin
(гПа)
dP
(гПа)
Po
(мм)
O2
(г/м3)
Тmin Tmax R s Состояние
почвы
09 18.01.17 060 (СВ) 8-13{14}  4000 м  дымка  10/10 120 м 
[St]
+1.4 +0.6 94 -3  1026.7  0.7  765  307           
12 18.01.17 050 (СВ) 8-12{14}  4000 м  дымка  10/10 120 м 
[St]
+0.8 -0.3 92 -3  1026.7  -0.1  765  308           
15 18.01.17 050 (СВ) 8-13{14}  10 км    10/10 150 м 
[St]
+0.7 -0.7 90 -3  1028.2  1.5  766  308           
18 18.01.17 050 (СВ) 8-13{14}  10 км    10/10 180 м 
[St]
+0.3 -2 85 -4  1029.4  1.2  767  309    +1.7       
21 18.01.17 050 (СВ) 8-13{14}  10 км    10/10 270 м 
[St]
-0.5 -2.7 85 -5  1029.9  0.5  768  310           
00 19.01.17 040 (СВ) 7-12{14}  10 км    10/10 270 м 
[St]
-0.7 -2.9 85 -5  1030.6  0.7  768  311           
03 19.01.17 040 (СВ) 8-12{14}  10 км    10/10 270 м 
[St]
-1.2 -3.5 84 -6  1031.5  0.9  769  312  -1.3         
06 19.01.17 050 (СВ) 8-13{14}  10 км    10/10 270 м 
[St]
-2 -4.2 85 -7  1032.6  770  313  -2.1         
09 19.01.17 030 (СВ) 8-13{14}  10 км    10/10 270 м 
[St]
-2.3 -4.9 82 -7  1033.7  1.1  770  314           
12 19.01.17 030 (СВ) 7-12{13}  10 км    10/10 270 м 
[St]
-2.6 -4.9 84 -7  1033.1  -0.6  770  314           
15 19.01.17 030 (СВ) 7-11{12}  10 км  {снег}  10/10 270 м 
[St]
-3.1 -5.2 85 -8  1033.4  0.3  770  315      0.0     
18 19.01.17 030 (СВ) 6{11}  10 км  {снег}  10/10 330 м 
[Sc]
-3.4 -6.6 78 -8  1033.6  0.2  770  315    -1.2       
21 19.01.17 040 (СВ) 6{10}  10 км    10/10 330 м 
[Sc]
-3.2 -6.4 79 -7  1033.4  -0.2  770  315           
00 20.01.17 050 (СВ) 10 км    9/9 360 м 
[Sc]
-3.2 -6 81 -7  1033.2  -0.2  770  315           
03 20.01.17 040 (СВ) 10 км    10/10 270 м 
[St]
-3.8 -6.4 82 -7  1032.5  -0.7  770  315  -4         
06 20.01.17 360 (С) 10 км  {ливн. осадки}  10/8 600 м средняя 
[Sc|Ac trans]
-4.2 -7.6 77 -9  1033.3  0.8  770  316  -4.6    0.0     
09 20.01.17 330 (СЗ) 10 км    9/9 450 м 
[Sc]
-4.6 -7.8 78 -8  1033.3  770  317           
12 20.01.17 310 (СЗ) 10 км    10/8 400 м средняя 
[Sc|Ac trans]
-4.2 -7.6 77 -8  1031.5  -1.8  769  315           
15 20.01.17 310 (СЗ) 10 км    6/6 630 м 
[Sc]
-4.9 -7.8 80 -8  1030.7  -0.8  768  316      0.0     
18 20.01.17 280 (З) 10 км    ясно 
-4.9 -7.8 80 -9  1030.6  -0.1  768  316    -3.7       
21 20.01.17 260 (З) 10 км    ясно 
-6.2 -8.5 84 -10  1029.9  -0.8  768  317           
00 21.01.17 280 (З) 10 км    ясно 
-5.7 -7.9 84 -8  1029  -0.8  767  316           
03 21.01.17 240 (ЮЗ) 10 км    4/0 средняя 
[Ac trans]
-5.1 -7.2 85 -7  1027.9  -1.1  766  315  -6.6         
06 21.01.17 270 (З) 10 км    9/4 300 м средняя 
[Sc|Ac und]
-1.4 -5.5 74 -5  1026.8  -1  765  311  -6.5        замёрзшая 
09 21.01.17 240 (ЮЗ) 10 км    10/6 930 м средняя 
[Sc|Ac und]
+3 -3.5 62 +1  1026  -0.7  765  305           
Время (UTC), дата Ветер
(°,м/с) 
Видим.   Явления Облачность Т
(°С)
Тd
(°С)
f(%) Тe
(°С)
Pmin
(гПа)
dP
(гПа)
Po
(мм)
O2
(г/м3)
Тmin Tmax R s Состояние
почвы

Для получения пояснительной информации подведите курсор к названию столбца.

ПОГОДА в Керчи - архив

Всё, что Вы хотите узнать о погоде в Керчи - удобно и подробно!

Выберите нужную дату (начиная с 1 января 2015* года) и нажмите кнопку "Найти".
Будут отображены архивные сводки погоды по пункту Керчь, начиная с указанной даты.


Отображать данные в формате CSV (для использования в таблицах Excel)


Внимание! Наш архив погоды предназначен исключительно для личного некоммерческого использования в познавательных целях. Если Вам необходимы официальные справки о состоянии погоды (для производственных, юридических, коммерческих и т.п. целей), обращайтесь в органы Росгидромета.

*Примечание: данная дата относится к архиву по метеостанциям СССР (Россия, СНГ, Балтия).
Архив по метеостанциям Зарубежной Европы и Азии (кроме Китая) хранится 10 дней, по другим регионам земного шара (Китай, Африка, Америка, Австралия, Океания) - 1 день.

Керчь - район местоположения метеостанции


Название, широта, долгота, высота метеостанции:
Керчь 45.4°ш. 36.4°д. 49 м над ур. моря [Российская Федерация]

Дополнительная информация

В oтличие oт бoльшинства пoгoдных сайтoв мы публикуем пoдрoбную метеoинфoрмацию в детальнoм прoфессиoнальнoм фoрмате.

Характеристики температуры и влажнoсти вoздуха измеряются на высoте 2 м в тени вдали oт зданий и деревьев.
Скoрoсть ветра измеряется на высoте 10 м (на урoвне рoста челoвека скoрoсть ветра ниже в 1.5-2 раза). Если метеoстанция нахoдится в гoрoде или в лесу, тo скoрoсть ветра занижена на 2-4 м/с пo сравнению с oткрытым местoм. Скoрoсть ветра над акватoриями крупных рек и oзёр, а также на вершинах хoлмoв на 2-5 м/с выше, чем в oбычных услoвиях.
Атмoсфернoе давление в разных тoчках местнoсти мoжет значительнo oтличаться oт давления на метеoстанции, в зависимoсти oт услoвий рельефа (при пoдъёме на 10 м давление пoнижается примернo на 1 мм рт.ст.).